This is the latest recevied weather packets stored in our database for station/object NC4J. If no packets are shown the sender has not sent any weather packets the latest 10 day(s).
| Time | Temp. | Humidity | Pressure | Rain* | Wind** | Luminosity | Snow |
|---|---|---|---|---|---|---|---|
| 1777425765 | 15.56° C | 94% | 1019.3 hPa | 0 mm | - | 0 W/m² | - |
| 1777425459 | 16.11° C | 94% | 1019.3 hPa | 0 mm | - | 0 W/m² | - |
| 1777425156 | 16.11° C | 94% | 1019.3 hPa | 0 mm | - | 0 W/m² | - |
| 1777424852 | 16.11° C | 93% | 1019 hPa | 0 mm | - | 0 W/m² | - |
| 1777424547 | 16.11° C | 93% | 1018.9 hPa | 0 mm | - | 0 W/m² | - |
| 1777424244 | 16.11° C | 93% | 1018.9 hPa | 0 mm | - | 0 W/m² | - |
| 1777423940 | 16.67° C | 93% | 1018.8 hPa | 0 mm | - | 0 W/m² | - |
| 1777423637 | 16.67° C | 92% | 1018.3 hPa | 0 mm | - | 0 W/m² | - |
| 1777423332 | 16.67° C | 91% | 1017.9 hPa | 0 mm | - | 0 W/m² | - |
| 1777423027 | 16.67° C | 90% | 1017.7 hPa | 0 mm | - | 0 W/m² | - |
| 1777422723 | 16.67° C | 89% | 1017.1 hPa | 0 mm | - | 0 W/m² | - |
| 1777422418 | 17.22° C | 89% | 1017.3 hPa | 0 mm | - | 0 W/m² | - |
| 1777422113 | 17.22° C | 87% | 1017.3 hPa | 0 mm | - | 0 W/m² | - |
| 1777421813 | 17.78° C | 87% | 1017.7 hPa | 0 mm | - | 1 W/m² | - |
| 1777421508 | 17.78° C | 87% | 1017.8 hPa | 0 mm | - | 1 W/m² | - |
| 1777421205 | 17.78° C | 86% | 1017.4 hPa | 0 mm | - | 2 W/m² | - |
| 1777420901 | 17.78° C | 86% | 1017.3 hPa | 0 mm | - | 3 W/m² | - |
| 1777420598 | 18.33° C | 89% | 1017.1 hPa | 0 mm | - | 5 W/m² | - |
| 1777420294 | 18.33° C | 86% | 1017 hPa | 0 mm | - | 7 W/m² | - |
| 1777419989 | 18.33° C | 87% | 1017 hPa | 0 mm | - | 9 W/m² | - |
| 1777419686 | 18.89° C | 86% | 1016.7 hPa | 0 mm | - | 11 W/m² | - |
| 1777419384 | 18.89° C | 82% | 1016.4 hPa | 0 mm | - | 14 W/m² | - |
| 1777419084 | 18.89° C | 83% | 1016.4 hPa | 0 mm | - | 16 W/m² | - |
| 1777418782 | 19.44° C | 83% | 1016.5 hPa | 0 mm | - | 17 W/m² | - |
| 1777418480 | 20° C | 80% | 1016.8 hPa | 0 mm | - | 21 W/m² | - |
* Rain latest hour (hover to see other rain measurements)
** Current wind speed in m/s (hover to see current wind gust speed)